weather.gov     
National Weather Service

Terminal Aerodrome Forecast
NWS Homepage
This page is being discontinued on March 12, 2014.
The same data is available at this site. Please update your bookmarks.
Thank you, and we apologize for the inconvenience.
Please send an email to SR-SRH.Webmaster@noaa.gov with any concerns.


Current Version
Previous Version:    01  02  03  04  05  06  07  08  09  10  11  12  13  14  15  16  17  18  19  20  21  22  23  24  25  26  27  28  29  30  
   31  32  33  34  35  36  37  38  39  
[Printable]
456
FTUS42 KTAE 301100
TAFVLD
TAF
KVLD 301120Z 3012/0112 02005KT 6SM -DZ BR BKN007 OVC011
      TEMPO 3012/3015 BKN004
     FM301700 06005KT P6SM BKN015
     FM302100 04005KT P6SM SCT030
     FM010300 09003KT P6SM FEW250
      TEMPO 0109/0112 4SM BR SCT004=


U.S. Dept. of Commerce
NOAA National Weather Service
1325 East West Highway
Silver Spring, MD 20910
E-mail: w-nws.webmaster@noaa.gov
Page last modified: May 16, 2007
NATIONAL WEATHER SERVICE: for Safety, for Work, for Fun - FOR LIFE